| time (UTC) | temp F | wind direction | speed knots | gust knots | rain 1hr in | rain 24hr in | rain mn in | humidity % | barometer mb |
| 20260906224540 | 91 | 88 | 7.8 | 13.0 | 0.00 | 0.00 | 0.00 | 30 | 1000.5 |
| 20260906223050 | 91 | 91 | 3.5 | 8.7 | 0.00 | 0.00 | 0.00 | 30 | 1000.5 |
| 20260906221537 | 90 | 85 | 5.2 | 10.4 | 0.00 | 0.00 | 0.00 | 29 | 1000.7 |
| 20260906220034 | 90 | 140 | 4.3 | 7.8 | 0.00 | 0.00 | 0.00 | 31 | 1000.9 |
| 20260906214532 | 90 | 107 | 6.1 | 10.4 | 0.00 | 0.00 | 0.00 | 31 | 1001.3 |
| 20260906213028 | 89 | 88 | 6.1 | 11.3 | 0.00 | 0.00 | 0.00 | 34 | 1001.5 |
| 20260906211525 | 88 | 124 | 3.5 | 10.4 | 0.00 | 0.00 | 0.00 | 36 | 1001.8 |
| 20260906210023 | 87 | 74 | 3.5 | 11.3 | 0.00 | 0.00 | 0.00 | 36 | 1001.9 |
| 20260906204522 | 87 | 152 | 5.2 | 12.2 | 0.00 | 0.00 | 0.00 | 36 | 1001.9 |
| 20260906203027 | 87 | 125 | 4.3 | 8.7 | 0.00 | 0.00 | 0.00 | 38 | 1002.2 |
| 20260906201518 | 87 | 85 | 2.6 | 10.4 | 0.00 | 0.00 | 0.00 | 37 | 1002.3 |
| 20260906200017 | 87 | 40 | 4.3 | 7.8 | 0.00 | 0.00 | 0.00 | 38 | 1002.2 |
| 20260906194515 | 87 | 116 | 6.1 | 11.3 | 0.00 | 0.00 | 0.00 | 39 | 1002.4 |
| 20260906193011 | 86 | 76 | 7.0 | 11.3 | 0.00 | 0.00 | 0.00 | 41 | 1002.7 |
| 20260906191510 | 85 | 57 | 7.0 | 12.2 | 0.00 | 0.00 | 0.00 | 39 | 1003.1 |
| 20260906190006 | 85 | 138 | 3.5 | 7.8 | 0.00 | 0.00 | 0.00 | 41 | 1003.3 |
| 20260906184505 | 85 | 138 | 2.6 | 8.7 | 0.00 | 0.00 | 0.00 | 42 | 1003.6 |
| 20260906183105 | 85 | 188 | 2.6 | 7.0 | 0.00 | 0.00 | 0.00 | 42 | 1003.9 |
| 20260906181503 | 83 | 82 | 0.9 | 7.8 | 0.00 | 0.00 | 0.00 | 42 | 1004.2 |
| 20260906180001 | 82 | 1 | 1.7 | 6.1 | 0.00 | 0.00 | 0.00 | 44 | 1004.4 |
| 20260906174500 | 83 | 18 | 0.9 | 7.8 | 0.00 | 0.00 | 0.00 | 44 | 1004.6 |
| 20260906173104 | 82 | 342 | 2.6 | 5.2 | 0.00 | 0.00 | 0.00 | 44 | 1004.8 |
| 20260906171602 | 81 | 29 | 1.7 | 5.2 | 0.00 | 0.00 | 0.00 | 46 | 1005.1 |
| 20260906170057 | 80 | 57 | 2.6 | 4.3 | 0.00 | 0.00 | 0.00 | 46 | 1005.1 |
| 20260906164554 | 79 | 1 | 2.6 | 7.8 | 0.00 | 0.00 | 0.00 | 46 | 1005.3 |
| 20260906163109 | 79 | 20 | 1.7 | 6.1 | 0.00 | 0.00 | 0.00 | 47 | 1005.5 |
| 20260906161549 | 77 | 305 | 2.6 | 7.0 | 0.00 | 0.00 | 0.00 | 52 | 1005.6 |
| 20260906160047 | 76 | 86 | 3.5 | 7.8 | 0.00 | 0.00 | 0.00 | 52 | 1005.7 |
| 20260906154543 | 77 | 5 | 3.5 | 5.2 | 0.00 | 0.00 | 0.00 | 53 | 1005.6 |
| 20260906153047 | 74 | 329 | 0.0 | 5.2 | 0.00 | 0.00 | 0.00 | 56 | 1005.6 |
| 20260906151540 | 74 | 59 | 3.5 | 7.0 | 0.00 | 0.00 | 0.00 | 57 | 1005.9 |
| 20260906150042 | 73 | 65 | 3.5 | 7.0 | 0.00 | 0.00 | 0.00 | 58 | 1006.0 |
| 20260906144538 | 72 | 42 | 3.5 | 7.8 | 0.00 | 0.00 | 0.00 | 58 | 1005.9 |
| 20260906143045 | 71 | 59 | 3.5 | 6.1 | 0.00 | 0.00 | 0.00 | 59 | 1005.9 |
| 20260906141535 | 68 | 178 | 0.9 | 2.6 | 0.00 | 0.00 | 0.00 | 59 | 1006.1 |
| 20260906140033 | 67 | 191 | 1.7 | 2.6 | 0.00 | 0.00 | 0.00 | 62 | 1006.2 |
| 20260906134536 | 67 | 191 | 0.0 | 0.9 | 0.00 | 0.00 | 0.00 | 63 | 1006.1 |
| 20260906133029 | 66 | 191 | 0.0 | 1.7 | 0.00 | 0.00 | 0.00 | 65 | 1006.0 |
| 20260906131527 | 66 | 346 | 0.0 | 0.0 | 0.00 | 0.00 | 0.00 | 67 | 1005.8 |
| 20260906130027 | 65 | 346 | 0.0 | 0.0 | 0.00 | 0.00 | 0.00 | 67 | 1005.4 |
| 20260906124524 | 65 | 346 | 0.0 | 1.7 | 0.00 | 0.00 | 0.00 | 67 | 1005.4 |
| 20260906123022 | 65 | 343 | 1.7 | 4.3 | 0.00 | 0.00 | 0.00 | 68 | 1005.1 |
| 20260906121523 | 65 | 351 | 0.0 | 5.2 | 0.00 | 0.00 | 0.00 | 68 | 1005.0 |
| 20260906120019 | 65 | 344 | 0.0 | 1.7 | 0.00 | 0.00 | 0.00 | 68 | 1004.8 |
| 20260906114516 | 66 | 344 | 0.9 | 3.5 | 0.00 | 0.00 | 0.00 | 66 | 1004.7 |
| 20260906113014 | 68 | 344 | 0.0 | 0.0 | 0.00 | 0.00 | 0.00 | 64 | 1004.6 |
| 20260906111513 | 68 | 323 | 0.9 | 3.5 | 0.00 | 0.00 | 0.00 | 64 | 1004.6 |
| 20260906110013 | 68 | 309 | 1.7 | 6.1 | 0.00 | 0.00 | 0.00 | 64 | 1004.7 |
| 20260906104512 | 68 | 347 | 1.7 | 6.1 | 0.00 | 0.00 | 0.00 | 64 | 1004.7 |
| 20260906103011 | 68 | 319 | 2.6 | 5.2 | 0.00 | 0.00 | 0.00 | 65 | 1004.6 |
| 20260906101511 | 67 | 334 | 2.6 | 5.2 | 0.00 | 0.00 | 0.00 | 65 | 1004.9 |
| 20260906100010 | 67 | 317 | 2.6 | 5.2 | 0.00 | 0.00 | 0.00 | 66 | 1004.8 |
| 20260906094510 | 67 | 295 | 3.5 | 5.2 | 0.00 | 0.00 | 0.00 | 65 | 1004.8 |
| 20260906093012 | 67 | 340 | 3.5 | 6.1 | 0.00 | 0.00 | 0.00 | 65 | 1004.6 |
| 20260906091506 | 67 | 302 | 1.7 | 6.1 | 0.00 | 0.00 | 0.00 | 64 | 1004.5 |
| 20260906090004 | 68 | 351 | 2.6 | 5.2 | 0.00 | 0.00 | 0.00 | 63 | 1004.4 |
| 20260906084503 | 68 | 19 | 3.5 | 7.0 | 0.00 | 0.00 | 0.00 | 63 | 1004.4 |
| 20260906083101 | 68 | 16 | 4.3 | 8.7 | 0.00 | 0.00 | 0.00 | 62 | 1004.4 |
| 20260906081557 | 69 | 23 | 7.0 | 10.4 | 0.00 | 0.00 | 0.00 | 60 | 1004.5 |
| 20260906080059 | 70 | 31 | 5.2 | 9.6 | 0.00 | 0.00 | 0.00 | 59 | 1004.3 |
| 20260906074558 | 70 | 32 | 5.2 | 9.6 | 0.00 | 0.00 | 0.00 | 58 | 1003.9 |
| 20260906073050 | 70 | 30 | 5.2 | 9.6 | 0.00 | 0.00 | 0.00 | 57 | 1003.6 |
| 20260906071549 | 71 | 31 | 7.0 | 10.4 | 0.00 | 0.00 | 0.00 | 56 | 1003.5 |
| 20260906070046 | 71 | 43 | 6.1 | 9.6 | 0.00 | 0.00 | 0.00 | 54 | 1003.5 |
| 20260906064544 | 71 | 28 | 4.3 | 7.8 | 0.00 | 0.00 | 0.00 | 51 | 1003.4 |
| 20260906063040 | 72 | 45 | 5.2 | 8.7 | 0.00 | 0.00 | 0.00 | 49 | 1003.3 |
| 20260906061540 | 74 | 25 | 4.3 | 7.0 | 0.00 | 0.00 | 0.00 | 46 | 1003.6 |
| 20260906060036 | 76 | 30 | 0.0 | 2.6 | 0.00 | 0.00 | 0.00 | 45 | 1003.6 |
| 20260906054531 | 77 | 116 | 1.7 | 4.3 | 0.00 | 0.00 | 0.00 | 44 | 1003.8 |
| 20260906053031 | 77 | 129 | 1.7 | 6.1 | 0.00 | 0.00 | 0.00 | 43 | 1003.9 |
| 20260906051530 | 79 | 146 | 3.5 | 8.7 | 0.00 | 0.00 | 0.00 | 41 | 1004.0 |
| 20260906050030 | 80 | 124 | 7.0 | 13.0 | 0.00 | 0.00 | 0.00 | 38 | 1004.0 |
| 20260906044533 | 79 | 78 | 4.3 | 8.7 | 0.00 | 0.00 | 0.00 | 38 | 1004.0 |
| 20260906043028 | 79 | 103 | 0.9 | 2.6 | 0.00 | 0.00 | 0.00 | 36 | 1003.7 |
| 20260906041538 | 80 | 151 | 0.9 | 3.5 | 0.00 | 0.00 | 0.00 | 35 | 1003.7 |
| 20260906040026 | 80 | 97 | 0.9 | 5.2 | 0.00 | 0.00 | 0.00 | 35 | 1003.7 |
| 20260906034530 | 80 | 132 | 1.7 | 8.7 | 0.00 | 0.00 | 0.00 | 35 | 1003.7 |
| 20260906033028 | 80 | 89 | 2.6 | 8.7 | 0.00 | 0.00 | 0.00 | 36 | 1003.7 |
| 20260906031524 | 78 | 33 | 0.9 | 3.5 | 0.00 | 0.00 | 0.00 | 37 | 1003.2 |
| 20260906030024 | 79 | 32 | 0.0 | 1.7 | 0.00 | 0.00 | 0.00 | 37 | 1002.8 |
| 20260906024523 | 81 | 155 | 0.0 | 0.0 | 0.00 | 0.00 | 0.00 | 36 | 1002.4 |
| 20260906023022 | 83 | 155 | 0.0 | 0.0 | 0.00 | 0.00 | 0.00 | 34 | 1002.2 |
| 20260906021523 | 84 | 155 | 0.0 | 3.5 | 0.00 | 0.00 | 0.00 | 32 | 1002.0 |
| 20260906020022 | 84 | 159 | 1.7 | 4.3 | 0.00 | 0.00 | 0.00 | 31 | 1001.9 |
| 20260906014525 | 84 | 132 | 0.9 | 2.6 | 0.00 | 0.00 | 0.00 | 30 | 1001.6 |
| 20260906013021 | 85 | 151 | 0.9 | 2.6 | 0.00 | 0.00 | 0.00 | 29 | 1001.4 |
| 20260906011521 | 88 | 151 | 0.0 | 1.7 | 0.00 | 0.00 | 0.00 | 26 | 1001.4 |
| 20260906010020 | 89 | 173 | 0.9 | 3.5 | 0.00 | 0.00 | 0.00 | 24 | 1001.5 |
| 20260906004519 | 91 | 175 | 1.7 | 2.6 | 0.00 | 0.00 | 0.00 | 23 | 1001.5 |
| 20260906003020 | 91 | 143 | 1.7 | 4.3 | 0.00 | 0.00 | 0.00 | 23 | 1001.3 |
| 20260906001520 | 92 | 181 | 1.7 | 6.1 | 0.00 | 0.00 | 0.00 | 23 | 1001.3 |
| 20260906000019 | 91 | 212 | 2.6 | 7.0 | 0.00 | 0.00 | 0.00 | 23 | 1001.5 |
| 20260905234518 | 89 | 199 | 1.7 | 5.2 | 0.00 | 0.00 | 0.00 | 27 | 1001.7 |
| 20260905233017 | 89 | 205 | 6.1 | 9.6 | 0.00 | 0.00 | 0.00 | 27 | 1001.6 |
| 20260905231518 | 92 | 190 | 3.5 | 8.7 | 0.00 | 0.00 | 0.00 | 21 | 1001.5 |
| 20260905230017 | 92 | 139 | 0.9 | 6.1 | 0.00 | 0.00 | 0.00 | 21 | 1001.5 |